Home   Weather   Sterling Heights   Past weeks

Flag for USA Past Weather in Sterling Heights, Michigan, USA — Yesterday and Last 2 Weeks

39 °F


Feels Like: 33 °F
Forecast: 36 / 44 °F
Wind: 9 mph from East

Location: Selfridge Air National Guard Base

Current Time: Oct 26, 2016 at 9:22:38 AM

Latest Report: Oct 26, 2016 at 8:58 AM

Visibility: 10 mi

Pressure: 30.47 "Hg

Humidity: 66%

Dew Point: 29 °F

Location of Sterling HeightsLocation

Past Weather in Sterling Heights — Graph


Sterling Heights Temperature Yesterday

Maximum temperature yesterday: 51 °F (at 12:58 PM)
Minimum temperature yesterday: 36 °F (at 11:58 PM)
Average temperature yesterday: 42 °F

High & Low Weather Summary for the Past Weeks

High81 °F (Oct 17, 2:58 PM)100% (Oct 12, 11:04 PM)30.47 "Hg (Oct 12, 11:04 PM)
Low33 °F (Oct 26, 1:58 AM)50% (Oct 13, 3:58 PM)29.58 "Hg (Oct 18, 4:58 AM)
Average55 °F78%30.06 "Hg
* Reported Oct 11 7:58 AM — Oct 26 7:58 AM, Sterling Heights, Weather by CustomWeather, © 2016

Note: Actual official high and low records may vary slightly from our data, if they occured in-between our weather recording intervals... More about our weather records


Sterling Heights Weather History for the Previous 24 Hours

Scroll right to see more
Time TempWeatherWind HumidityBarometerVisibility
7:58 AM
Wed, Oct 26
39 °FOvercast.9 mph63%30.46 "Hg10 mi
6:58 AM39 °FClear.9 mph63%30.47 "Hg10 mi
5:58 AM39 °FClear.9 mph70%30.46 "Hg10 mi
4:58 AM38 °FClear.8 mph77%30.46 "Hg10 mi
3:58 AM38 °FClear.10 mphN/A30.45 "Hg10 mi
2:58 AM37 °FClear.8 mph79%30.45 "Hg10 mi
1:58 AM33 °FClear.No wind90%30.45 "Hg10 mi
12:58 AM35 °FClear.No wind85%30.44 "Hg10 mi
11:58 PM
Tue, Oct 25
36 °FClear.6 mph82%30.45 "Hg10 mi
10:58 PM36 °FPassing clouds.7 mph81%30.45 "Hg12 mi
9:58 PM40 °FPassing clouds.3 mph70%30.45 "Hg12 mi
8:58 PM40 °FPassing clouds.3 mph70%30.45 "Hg12 mi
7:58 PM41 °FPassing clouds.3 mph67%30.45 "Hg12 mi
6:58 PM42 °FPassing clouds.6 mph68%30.42 "Hg12 mi
5:58 PM48 °FBroken clouds.8 mph52%30.41 "Hg10 mi
4:58 PM49 °FBroken clouds.6 mph52%30.40 "Hg10 mi
3:58 PM49 °FPartly sunny.9 mph56%30.41 "Hg10 mi
2:58 PM50 °FPartly sunny.10 mph55%30.41 "Hg10 mi
1:58 PM50 °FPartly sunny.12 mph55%30.42 "Hg10 mi
12:58 PM51 °FScattered clouds.14 mph50%30.43 "Hg10 mi
11:58 AM49 °FPassing clouds.10 mph55%30.43 "Hg10 mi
10:58 AM47 °FPassing clouds.10 mph68%30.43 "Hg10 mi
9:58 AM43 °FPassing clouds.7 mph76%30.43 "Hg10 mi
Weather by CustomWeather, © 2016

See weather overviewHow to use our weather pages